Omaha Offutt, NE

12:08 AM CDT on May 28, 2017 (GMT -0500)
Offutt Air Force Base

Weather History for KOFF - January, 2012

Change the Weather History Date:

Saturday, January 14, 2012

  Actual Average Record
Temperature  
Mean Temperature 31 °F -  
Max Temperature 45 °F 31 °F 51 °F (2006)
Min Temperature 17 °F 14 °F -7 °F (2009)
Degree Days  
Heating Degree Days 34    
Moisture  
Dew Point 17 °F    
Average Humidity 63    
Maximum Humidity 100    
Minimum Humidity 33    
Precipitation  
Precipitation 0.00 in - - ()
Sea Level Pressure  
Sea Level Pressure 30.11 in    
Wind  
Wind Speed 6 mph (WNW)    
Max Wind Speed 16 mph    
Max Gust Speed 22 mph    
Visibility 10 miles    
Events      
Averages and records for this station are not official NWS values.
T = Trace of Precipitation, MM = Missing Value Source: NWS Daily Summary

Daily Weather History Graph

Daily Weather History Graph

Search for Another Location

Airport or City:

Trip Planner

Search our weather history database for the weather conditions in past years. The results will help you decide how hot, cold, wet, or windy it might be!

Date:

Astronomy

Jan. 14, 2012 Rise Set
Actual Time 7:47 AM CST 5:18 PM CST
Civil Twilight 7:16 AM CST 5:48 PM CST
Nautical Twilight 6:42 AM CST 6:22 PM CST
Astronomical Twilight 6:09 AM CST 6:55 PM CST
Moon 11:44 PM CST (1/14) 10:29 AM CST (1/14)
Length of Visible Light 10h 31m
Length of Day
9h 30m
Waning Gibbous, 68% of the Moon is Illuminated
Jan 14
Waning Gibbous
Jan 16
Last Quarter
Jan 23
New
Jan 30
First Quarter
Feb 7
Full

Hourly Weather History & Observations

Time (CST) Temp. Windchill Dew Point Humidity Pressure Visibility Wind Dir Wind Speed Gust Speed Precip Events Conditions
12:55 AM 27.5 °F 19.3 °F 12.6 °F 54% 29.88 in 10.0 mi SE 8.1 mph - N/A   Scattered Clouds
1:55 AM 25.5 °F - 14.2 °F 62% 29.88 in 10.0 mi Calm Calm - N/A   Overcast
2:55 AM 26.6 °F 21.2 °F 14.5 °F 60% 29.91 in 10.0 mi North 4.6 mph - N/A   Overcast
3:55 AM 27.1 °F 19.7 °F 14.5 °F 59% 29.95 in 10.0 mi North 6.9 mph - N/A   Scattered Clouds
4:55 AM 24.6 °F 18.8 °F 14.0 °F 64% 30.00 in 10.0 mi NW 4.6 mph - N/A   Mostly Cloudy
5:55 AM 25.9 °F 18.2 °F 14.0 °F 61% 30.05 in 10.0 mi NNW 6.9 mph - N/A   Overcast
6:40 AM 26.6 °F 20.0 °F 12.2 °F 55% 30.09 in 10.0 mi NNW 5.8 mph - N/A   Overcast
6:55 AM 26.4 °F 18.9 °F 12.6 °F 56% 30.09 in 10.0 mi NW 6.9 mph - N/A   Overcast
7:55 AM 26.1 °F 21.9 °F 13.3 °F 59% 30.11 in 10.0 mi West 3.5 mph - N/A   Overcast
8:32 AM 26.6 °F 18.2 °F 14.0 °F 59% 30.14 in 10.0 mi West 8.1 mph - N/A   Overcast
8:55 AM 27.3 °F 18.4 °F 15.3 °F 61% 30.15 in 10.0 mi WNW 9.2 mph - N/A   Overcast
9:00 AM 26.6 °F 18.2 °F 15.8 °F 64% 30.15 in 10.0 mi WNW 8.1 mph - N/A   Overcast
9:47 AM 30.2 °F 25.4 °F 15.8 °F 55% 30.16 in 10.0 mi West 4.6 mph - N/A   Overcast
9:55 AM 29.5 °F 24.5 °F 17.1 °F 60% 30.17 in 10.0 mi WNW 4.6 mph - N/A   Overcast
10:14 AM 30.2 °F - 19.4 °F 64% 30.17 in 10.0 mi Calm Calm - N/A   Overcast
10:35 AM 33.8 °F 27.7 °F 23.0 °F 65% 30.18 in 10.0 mi WNW 6.9 mph - N/A   Overcast
10:39 AM 33.8 °F 28.6 °F 23.0 °F 65% 30.18 in 10.0 mi WNW 5.8 mph - N/A   Overcast
10:40 AM 33.8 °F 27.7 °F 23.0 °F 65% 30.18 in 10.0 mi WNW 6.9 mph - N/A   Overcast
10:55 AM 33.6 °F 28.4 °F 23.9 °F 68% 30.18 in 10.0 mi West 5.8 mph - N/A   Overcast
11:55 AM 38.5 °F 33.4 °F 26.1 °F 61% 30.16 in 10.0 mi West 6.9 mph - N/A   Partly Cloudy
12:55 PM 42.6 °F 35.6 °F 25.2 °F 50% 30.14 in 10.0 mi WNW 13.8 mph 21.9 mph N/A   Scattered Clouds
1:55 PM 44.2 °F 38.0 °F 21.7 °F 41% 30.13 in 10.0 mi WNW 12.7 mph - N/A   Partly Cloudy
2:55 PM 45.0 °F 38.2 °F 18.5 °F 35% 30.13 in 10.0 mi West 15.0 mph - N/A   Clear
3:55 PM 44.2 °F 37.0 °F 16.9 °F 33% 30.14 in 10.0 mi WNW 16.1 mph - N/A   Clear
4:55 PM 40.6 °F 36.0 °F 16.2 °F 37% 30.15 in 10.0 mi WNW 6.9 mph - N/A   Clear
5:55 PM 27.9 °F - 13.5 °F 55% 30.16 in 10.0 mi Calm Calm - N/A   Clear
6:55 PM 27.5 °F - 14.0 °F 57% 30.17 in 10.0 mi Calm Calm - N/A   Clear
7:55 PM 20.3 °F 13.8 °F 17.2 °F 88% 30.18 in 10.0 mi South 4.6 mph - N/A   Clear
8:55 PM 19.2 °F - 19.2 °F 100% 30.19 in 10.0 mi Calm Calm - N/A   Clear
9:55 PM 18.9 °F - 18.9 °F 100% 30.18 in 10.0 mi Calm Calm - N/A   Clear
10:55 PM 17.1 °F - 17.1 °F 100% 30.17 in 10.0 mi Calm Calm - N/A   Clear
11:55 PM 17.1 °F - 17.1 °F 100% 30.14 in 10.0 mi Calm Calm - N/A   Clear